EW1867 Weather Reports


Display with metric or nautical units.
time (UTC)temp
F
wind
direction
speed
MPH
gust
MPH
rain 1hr
in
rain 24hr
in
rain mn
in
humidity
%
barometer
mb
20260831134426 58 0 0.0 2.0 0.00 0.00 0.00 83 1010.3
20260831133526 58 119 1.0 3.0 0.00 0.00 0.00 83 1010.1
20260831132626 58 119 0.0 4.0 0.00 0.00 0.00 83 1010.0
20260831131726 58 142 0.0 4.0 0.00 0.00 0.00 83 1010.1
20260831130826 59 133 1.0 3.0 0.00 0.00 0.00 82 1009.9
20260831125926 59 125 1.0 3.0 0.00 0.00 0.00 82 1009.8
20260831124126 59 123 1.0 3.0 0.00 0.00 0.00 82 1009.8
20260831123226 59 120 1.0 3.0 0.00 0.00 0.00 81 1009.7
20260831122326 60 127 1.0 3.0 0.00 0.00 0.00 80 1009.7
20260831121426 60 122 0.0 5.0 0.00 0.00 0.00 79 1009.7
20260831115626 60 116 0.0 4.0 0.00 0.00 0.00 78 1009.8
20260831114726 61 114 1.0 3.0 0.00 0.00 0.00 78 1009.8
20260831110227 62 112 1.0 3.0 0.00 0.00 0.00 73 1009.8
20260831105326 62 0 0.0 2.0 0.00 0.00 0.00 73 1009.7
20260831104426 62 0 0.0 2.0 0.00 0.00 0.00 72 1009.7
20260831101726 63 0 0.0 2.0 0.00 0.00 0.00 70 1009.6
20260831100826 63 0 0.0 3.0 0.00 0.00 0.00 71 1009.4
20260831095927 63 0 0.0 2.0 0.00 0.00 0.00 71 1009.5
20260831095026 63 0 0.0 4.0 0.00 0.00 0.00 71 1009.6
20260831094126 64 124 1.0 4.0 0.00 0.00 0.00 71 1009.6
20260831092326 64 111 1.0 3.0 0.00 0.00 0.00 70 1009.4
20260831090527 65 0 0.0 4.0 0.00 0.00 0.00 69 1009.6
20260831085626 65 107 1.0 4.0 0.00 0.00 0.00 69 1009.5
20260831084727 65 102 1.0 3.0 0.00 0.00 0.00 69 1009.5
20260831083827 65 109 0.0 3.0 0.00 0.00 0.00 69 1009.7
20260831082026 66 119 1.0 4.0 0.00 0.00 0.00 68 1009.5
20260831081127 66 117 1.0 3.0 0.00 0.00 0.00 67 1009.7
20260831080226 67 115 1.0 4.0 0.00 0.00 0.00 67 1009.8
20260831074426 67 106 0.0 4.0 0.00 0.00 0.00 66 1009.5
20260831073526 68 109 1.0 3.0 0.00 0.00 0.00 67 1009.5
20260831072626 68 104 1.0 3.0 0.00 0.00 0.00 65 1009.5
20260831070827 68 108 1.0 3.0 0.00 0.00 0.00 65 1009.6
20260831065926 68 100 1.0 4.0 0.00 0.00 0.00 64 1009.6
20260831065026 69 103 1.0 3.0 0.00 0.00 0.00 64 1009.6
20260831064126 69 106 1.0 5.0 0.00 0.00 0.00 64 1009.6
20260831063227 69 106 1.0 5.0 0.00 0.00 0.00 64 1009.6
20260831062326 69 101 1.0 5.0 0.00 0.00 0.00 63 1009.6
20260831061426 70 103 1.0 5.0 0.00 0.00 0.00 63 1009.6
20260831060527 70 102 1.0 3.0 0.00 0.00 0.00 63 1009.6
20260831055626 70 102 1.0 3.0 0.00 0.00 0.00 62 1009.5
20260831054726 71 114 1.0 5.0 0.00 0.00 0.00 62 1009.6
20260831053827 71 100 1.0 4.0 0.00 0.00 0.00 61 1009.4
20260831052926 72 113 1.0 3.0 0.00 0.00 0.00 60 1009.5
20260831052027 72 115 1.0 3.0 0.00 0.00 0.00 59 1009.4
20260831051126 73 117 0.0 3.0 0.00 0.00 0.00 58 1009.4
20260831045327 74 128 0.0 1.0 0.00 0.00 0.00 56 1009.3
20260831044427 74 205 1.0 2.0 0.00 0.00 0.00 55 1009.4
20260831043527 75 201 1.0 6.0 0.00 0.00 0.00 54 1009.3
20260831042627 76 175 0.0 2.0 0.00 0.00 0.00 52 1009.3
20260831041727 76 214 1.0 4.0 0.00 0.00 0.00 50 1009.1
20260831040826 77 218 1.0 4.0 0.00 0.00 0.00 49 1009.1
20260831035926 78 205 1.0 3.0 0.00 0.00 0.00 47 1008.8